TimeEDT,TemperatureF,Dew PointF,Humidity,Sea Level PressureIn,VisibilityMPH,Wind Direction,Wind SpeedMPH,Gust SpeedMPH,PrecipitationIn,Events,Conditions,WindDirDegrees,DateUTC
12:53 AM,45.0,37.9,76,29.87,10.0,NNW,11.5,-,N/A,,Overcast,330,2013-05-11 04:53:00
1:53 AM,45.0,37.9,76,29.85,10.0,NNW,10.4,-,N/A,,Overcast,330,2013-05-11 05:53:00
2:53 AM,44.1,39.0,82,29.88,10.0,WNW,8.1,-,N/A,,Overcast,300,2013-05-11 06:53:00
3:53 AM,44.1,39.0,82,29.88,10.0,WNW,5.8,-,N/A,,Overcast,300,2013-05-11 07:53:00
4:53 AM,45.0,39.9,82,29.88,10.0,West,8.1,-,N/A,,Overcast,280,2013-05-11 08:53:00
4:54 AM,44.6,39.2,81,29.88,10.0,WNW,8.1,-,N/A,,Overcast,290,2013-05-11 08:54:00
5:53 AM,45.0,39.9,82,29.88,10.0,West,9.2,-,N/A,,Overcast,280,2013-05-11 09:53:00
6:53 AM,44.1,39.0,82,29.89,7.0,NW,9.2,-,N/A,,Overcast,320,2013-05-11 10:53:00
7:53 AM,45.0,39.9,82,29.89,9.0,WNW,8.1,-,N/A,,Overcast,290,2013-05-11 11:53:00
8:53 AM,46.0,41.0,83,29.88,10.0,West,6.9,-,N/A,,Overcast,280,2013-05-11 12:53:00
9:26 AM,46.4,41.0,81,29.87,10.0,NW,5.8,-,N/A,,Overcast,310,2013-05-11 13:26:00
9:53 AM,46.9,41.0,80,29.88,10.0,West,9.2,-,N/A,,Overcast,280,2013-05-11 13:53:00
10:53 AM,48.9,42.1,77,29.87,10.0,WNW,8.1,-,N/A,,Overcast,290,2013-05-11 14:53:00
11:53 AM,51.1,43.0,74,29.87,10.0,West,5.8,-,N/A,,Overcast,260,2013-05-11 15:53:00
12:17 PM,51.8,42.8,71,29.86,10.0,WSW,9.2,-,N/A,,Overcast,250,2013-05-11 16:17:00
12:53 PM,51.1,43.0,74,29.86,10.0,SSW,9.2,-,N/A,,Overcast,200,2013-05-11 16:53:00
1:53 PM,53.1,43.0,69,29.83,10.0,SW,8.1,-,N/A,,Overcast,230,2013-05-11 17:53:00
2:53 PM,55.9,44.1,64,29.83,10.0,South,10.4,-,N/A,,Overcast,190,2013-05-11 18:53:00
3:47 PM,57.2,42.8,59,29.79,10.0,South,13.8,-,N/A,,Overcast,180,2013-05-11 19:47:00
3:53 PM,57.0,43.0,59,29.80,10.0,South,10.4,18.4,N/A,,Overcast,170,2013-05-11 19:53:00
4:53 PM,61.0,44.1,54,29.76,10.0,South,16.1,-,N/A,,Mostly Cloudy,180,2013-05-11 20:53:00
5:53 PM,59.0,43.0,55,29.77,10.0,SW,20.7,28.8,0.00,Rain,Light Rain,220,2013-05-11 21:53:00
6:53 PM,54.0,46.0,75,29.78,3.0,West,17.3,23.0,0.00,Rain,Light Rain,260,2013-05-11 22:53:00
7:36 PM,50.0,44.6,82,29.80,8.0,West,18.4,26.5,0.02,Rain,Light Rain,280,2013-05-11 23:36:00
7:53 PM,50.0,43.0,77,29.82,10.0,West,18.4,28.8,0.03,,Mostly Cloudy,260,2013-05-11 23:53:00
8:53 PM,46.0,37.0,71,29.87,10.0,WNW,20.7,33.4,N/A,,Mostly Cloudy,290,2013-05-12 00:53:00
9:53 PM,42.8,32.0,66,29.89,10.0,WNW,9.2,19.6,N/A,,Partly Cloudy,300,2013-05-12 01:53:00
10:53 PM,41.0,32.0,70,29.92,10.0,West,9.2,-,N/A,,Clear,280,2013-05-12 02:53:00
11:53 PM,39.9,32.0,73,29.92,10.0,WSW,8.1,-,N/A,,Clear,250,2013-05-12 03:53:00